SCP
0 0 0 0 0 0 0 -0 -0 -0 -0 0 0 0 0 0 0 -0 -0 0 0 0
0 0 0 0 0 0 0 -0 -0 -0 -0 -0 0 0 0 0 0 0 0 0 0 0
0 0 0 0 -0 0 0 -0 -0 0 0 -0 0 0 0 0 0 0 0 0 0 0
0 0 0 0 -0 -0 -0 -0 0 0 0 0 -0 -0 0 -0 -0 0 0 0 0 0
0 0 0 0 0 -0 -0 -0 -0 0 0 0 -0 0 0 -0 0 0 0 -0 0 0
-0 0 -0 -0 0 -0 -0 -0 0 0 0 0 0 0 -0 -0 -0 0 0 0 0 0
-0 -0 0 -0 -0 -0 -0 -0 -0 0 0 0 0 0 -0 -0 0 0 0 0 0 0
0 -0 -0 -0 -0 -0 -0 -0 -0 0 0 0 0 0 0 0 0 0 0 0 0 0
0 0 -0 -0 0 -0 -0 0 -0 -0 -0 -0 0 0 0 0 0 0 0 0 -0 -0
0 0 0 0 0 -0 -0 -0 0 0 -0 -0 0 -0 -0 -0 -0 0 0 -0 0 0
0 0 0 0 0 0 0 -0 -0 -0 0 0 0 0 -0 -0 0 0 -0 -0 0 0
0 0 0 0 0 0 0 0 0 -0 -0 0 -0 0 -0 -0 -0 -0 -0 -0 -0 -0
0 0 0 0 0 0 0 0 0 -0 -0 -0 -0 -0 0 -0 -0 -0 -0 -0 -0 -0
0 0 0 0 0 0 0 0 0 0 0 0 0 -0 0 0 0 -0 -0 -0 -0 -0
Wind_Speed_500mb
43 42 42 43 43 38 44 54 51 48 53 52 58 50 57 60 50 53 50 30 23 30
42 42 44 40 39 34 48 52 50 51 55 47 63 57 47 56 41 54 44 25 29 32
44 46 45 41 41 39 51 54 49 47 48 49 47 56 51 49 49 54 46 32 30 33
46 48 46 45 45 48 55 56 54 52 43 42 43 50 50 49 58 54 48 43 30 31
46 48 51 48 48 51 55 56 54 55 50 45 44 47 51 58 55 53 51 46 36 34
49 50 50 47 52 54 54 57 59 56 55 48 46 46 47 52 54 51 51 45 39 38
51 55 54 52 51 54 54 57 61 59 55 55 51 49 48 57 55 51 50 46 44 49
52 54 58 56 54 58 56 57 56 56 57 56 56 55 57 56 58 59 58 53 50 47
56 56 59 59 57 60 63 58 60 59 58 58 60 57 48 54 66 65 61 64 63 53
64 60 58 60 60 61 65 66 66 65 62 62 60 57 49 50 58 65 67 63 57 57
66 68 65 61 65 65 67 68 68 69 68 65 64 63 60 53 55 61 65 67 65 61
68 68 70 73 72 71 70 71 71 70 70 71 68 67 66 64 63 63 63 66 66 64
72 71 70 71 75 74 73 70 69 71 72 71 70 69 69 72 68 67 67 70 70 69
77 76 72 69 69 73 73 70 67 68 70 74 72 69 71 74 73 73 71 72 70 66
Wind_Direction_500mb
169 169 173 175 171 173 165 172 170 169 181 190 197 194 198 200 193 181 189 193 207 201
177 184 179 179 184 181 172 171 173 174 180 175 194 194 196 201 191 186 191 187 188 197
184 186 184 186 188 180 173 172 178 180 187 187 189 197 204 206 192 190 192 187 193 196
185 180 184 187 188 180 176 175 182 182 187 188 196 201 204 202 198 196 197 194 196 201
186 184 184 185 186 181 176 181 184 181 181 183 198 203 204 204 204 202 204 199 204 209
192 188 186 185 186 186 185 185 185 186 184 184 186 190 196 200 204 203 207 208 215 215
201 194 190 192 194 193 194 193 191 194 197 194 194 195 201 202 205 209 207 211 217 221
206 201 199 199 197 200 201 199 198 197 196 199 201 202 202 209 209 209 207 207 219 223
210 209 206 204 206 205 202 203 206 207 205 205 205 212 216 219 210 211 213 212 218 222
209 211 212 210 209 207 205 206 209 210 211 213 213 213 221 220 219 216 218 218 220 225
213 212 212 214 213 212 211 212 214 216 217 218 217 212 217 223 224 222 221 224 228 233
221 218 215 216 217 217 217 218 219 220 221 222 221 218 219 225 229 229 230 229 229 233
225 224 223 222 221 221 224 227 227 225 224 225 224 224 222 223 227 229 231 230 230 234
230 229 227 226 224 222 224 225 227 227 227 228 227 224 225 223 227 232 233 236 234 228
Wind_Speed_850mb
43 42 42 43 43 38 44 54 51 48 53 52 58 50 57 60 50 53 50 30 23 30
42 42 44 40 39 34 48 52 50 51 55 47 63 57 47 56 41 54 44 25 29 32
44 46 45 41 41 39 51 54 49 47 48 49 47 56 51 49 49 54 46 32 30 33
46 48 46 45 45 48 55 56 54 52 43 42 43 50 50 49 58 54 48 43 30 31
46 48 51 48 48 51 55 56 54 55 50 45 44 47 51 58 55 53 51 46 36 34
49 50 50 47 52 54 54 57 59 56 55 48 46 46 47 52 54 51 51 45 39 38
51 55 54 52 51 54 54 57 61 59 55 55 51 49 48 57 55 51 50 46 44 49
52 54 58 56 54 58 56 57 56 56 57 56 56 55 57 56 58 59 58 53 50 47
56 56 59 59 57 60 63 58 60 59 58 58 60 57 48 54 66 65 61 64 63 53
64 60 58 60 60 61 65 66 66 65 62 62 60 57 49 50 58 65 67 63 57 57
66 68 65 61 65 65 67 68 68 69 68 65 64 63 60 53 55 61 65 67 65 61
68 68 70 73 72 71 70 71 71 70 70 71 68 67 66 64 63 63 63 66 66 64
72 71 70 71 75 74 73 70 69 71 72 71 70 69 69 72 68 67 67 70 70 69
77 76 72 69 69 73 73 70 67 68 70 74 72 69 71 74 73 73 71 72 70 66
Wind_Direction_850mb
169 169 173 175 171 173 165 172 170 169 181 190 197 194 198 200 193 181 189 193 207 201
177 184 179 179 184 181 172 171 173 174 180 175 194 194 196 201 191 186 191 187 188 197
184 186 184 186 188 180 173 172 178 180 187 187 189 197 204 206 192 190 192 187 193 196
185 180 184 187 188 180 176 175 182 182 187 188 196 201 204 202 198 196 197 194 196 201
186 184 184 185 186 181 176 181 184 181 181 183 198 203 204 204 204 202 204 199 204 209
192 188 186 185 186 186 185 185 185 186 184 184 186 190 196 200 204 203 207 208 215 215
201 194 190 192 194 193 194 193 191 194 197 194 194 195 201 202 205 209 207 211 217 221
206 201 199 199 197 200 201 199 198 197 196 199 201 202 202 209 209 209 207 207 219 223
210 209 206 204 206 205 202 203 206 207 205 205 205 212 216 219 210 211 213 212 218 222
209 211 212 210 209 207 205 206 209 210 211 213 213 213 221 220 219 216 218 218 220 225
213 212 212 214 213 212 211 212 214 216 217 218 217 212 217 223 224 222 221 224 228 233
221 218 215 216 217 217 217 218 219 220 221 222 221 218 219 225 229 229 230 229 229 233
225 224 223 222 221 221 224 227 227 225 224 225 224 224 222 223 227 229 231 230 230 234
230 229 227 226 224 222 224 225 227 227 227 228 227 224 225 223 227 232 233 236 234 228